STARLINK-1043, 44748

Orbit data source: Space-Track

STARLINK-1043, 44748 is a payload satellite owned by SpaceX/Seattle (US) in LEO that was launched on Mon, 11 Nov 2019 UTC via an FALCON 9 launch vehicle from the Air Force Eastern Test Range (AFETR). Payloads include a variety of satellites, spacecraft, and rockets equipped with specific instruments for various scientific and technological missions. These include communications satellites like Starlink; space stations such as the ISS; scientific satellites like the Hubble; Earth observation satellites from companies like Planet Labs, Umbra, and HawkEye 360; GPS; miniature CubeSats for education and research; and military/defense satellites.

Loading next visibility...
STARLINK-1043 details
Identifier
44748, 2019-074AM
Orbit
LEO
Last TLE update16 hours ago
Origin
Flag of USSpaceX/Seattle (US)
ManufacturerSpaceX/Seattle
MissionOperational Commercial Communications
Bus & MotorSTARLINK, Unknown motor
Mass260 kg wet, ~248 kg dry
Launch date (UTC)
2019-11-11 (5 years ago)
Launch vehicle
FALCON 9
Launch site
Air Force Eastern Test Range (AFETR)
Object type
Payload
Rocket body
Debris
Shape & HBRBox + 1 Pan, 8.86 m
Radar Cross Section13.562 m², Large (>1 m²)

Expand to show TLE details & history

TLE from 16 hours ago
0 STARLINK-1043
1 44748U 19074AM  25023.92803957  .00005921  00000-0  41610-3 0  9995
2 44748  53.0531 266.1107 0001259 107.1239 252.9888 15.06395699286606
Epoch: 2025-01-23T22:16Z
Definitive object data (Epoch: 2025-01-23T22:16:22.618Z)
Latitude-0.00003°
Longitude168.5179°
Altitude548.359 km
Speed7.589 km/s
True Right ascension17h 44m 26s
True Declination0° 00' 00"
Sunlit
Object was in daylight at TLE epoch
Visualization TLE readout
Latitude-52.80709°
Longitude85.31076°
Altitude566.399 km
Speed7.577 km/s
Apparent Right ascension06h 55m 20s
Apparent Declination-70° 17' 14"
Sunlit
Object is in daylight
Visualization observer readout
Local Sidereal Time15:05:29
Azimuth205.152° SW
Elevation-48.005°
Doppler factor1
Orbital elements
Apogee altitude548.368 km
Perigee altitude546.624 km
Semi-major axis6,925.633 km
Eccentricity0.0001259
Inclination53.0531°
RAAN266.1107°
Arg. of periapsis107.1239°
True anomaly252.975°
Mean anomaly252.9888°
Eccentric anomaly252.9819°
Mean motion3.76577 °/min
BSTAR0.0004161
Orbital period95.6 mins
Loading maneuver chart data...

STARLINK-1043 Visibility forecast

Observer location: undefined°, undefined

Span
Click to sort rows by Start time (UTC) header in descending order
Start Az.
Max El. time (UTC)
Max El. Az.
Max El.
End time (UTC)
End Az.
5 mins2025-01-24 17:31:24.863Z175.329° S2025-01-24 17:34:24.863Z126.875° SE19.111°2025-01-24 17:36:24.863Z91.051° ESE
6 mins2025-01-24 19:11:24.863Z254.622° W2025-01-24 19:13:24.863Z313.614° NW39.543°2025-01-24 19:17:24.863Z42.929° NE
4 mins2025-01-24 20:52:24.863Z319.337° NNW2025-01-24 20:53:24.863Z336.523° NNW16.198°2025-01-24 20:56:24.863Z24.485° NE
5 mins2025-01-25 00:13:24.863Z344.381° N2025-01-25 00:15:24.863Z28.757° NE24.627°2025-01-25 00:18:24.863Z82.619° E
6 mins2025-01-25 01:52:24.863Z296.264° NW2025-01-25 01:55:24.863Z201.773° SSW38.525°2025-01-25 01:58:24.863Z148.97° SSE
|